Weather in Moscow (Southeast)

Russia / Moscow Oblast     55°34′58″N   37°49′58″E
В апреле 2022 года жителям России запретили посещать сайт meteo.paraplan.net по решению Генеральной прокуратуры. Аудитория сайта уменьшилась в 10 раз. Владельцы сайта не видят смысла в поддержке погодного сервера в таких условиях. Сайт будет закрыт в октябре.
temp.,
°C
wind,
m/s
gust,
m/s
humid.,
%
clouds,
%
prec.,
mm/h
press.,
hPa
HPBL,
m
30 september, fri
fri3000:00+8s3592100 0.0 101471
03:00+8s3693100 0.0 1015115
06:00+7sse3794100 0.0 1015143
09:00+11s51079100 0.0 1015322
12:00+15s5874100 0.0 1015628
15:00+17ssw687486 0.2 1015880
18:00+13s489665 0.1 1016260
21:00+12ssw369495 0.1 1016197
1 october, sat
sat100:00+12ssw2396100 0.0 101670
03:00+12wsw1196100 0.0 101711
06:00+12ese1196100 0.0 101613
09:00+13se1295100 0.1 1015110
12:00+15sse2483100 0.0 1014447
15:00+16se347765 0.0 1012649
18:00+14ese3693100 0.7 1010116
21:00+14s51191100 1.8 1007318
2 october, sun
sun200:00+12sw61290100 0.6 1007539
03:00+10sw81277100 0.7 10071025
06:00+9sw71285100 0.1 1006937
09:00+9wsw71185100 0.1 1007952
12:00+10wsw6980100 0.0 1008769
15:00+11w4671100 0.1 1008951
18:00+10nw237984 0.0 100868
21:00+7nne3391100 0.0 100750
3 october, mon
mon300:00+9ne51087100 0.3 1004365
03:00+8ne71395100 6.2 1000515
06:00+14se71395100 6.9 996720
09:00+14se71596100 9.0 995724
12:00+14se91692100 2.8 993982
15:00+13ssw71293100 4.9 994799
18:00+8ssw71090100 0.1 998903
21:00+7ssw61089100 0.1 10011149
4 october, tue
tue400:00+7ssw71088100 0.4 10031137
03:00+6ssw61091100 1.4 10051131
06:00+7ssw71181100 0.1 1007864
09:00+8s612845 0.1 1009557
12:00+12ssw7106968 0.0 10111174
15:00+12ssw7106887 0.3 10121085
18:00+10s5108376 0.6 1014376
21:00+9s6118758 0.8 1015585